This is the latest recevied weather packets stored in our database for station/object XQ6AK-15. If no packets are shown the sender has not sent any weather packets the latest 10 day(s).
| Time | Temp. | Humidity | Pressure | Rain* | Wind** | Luminosity | Snow |
|---|---|---|---|---|---|---|---|
| 1788045620 | 8.33° C | 99% | 1011.3 hPa | 0 mm | - | 0 W/m² | - |
| 1788045315 | 8.89° C | 99% | 1011.2 hPa | 0 mm | - | 0 W/m² | - |
| 1788045011 | 8.89° C | 98% | 1011.1 hPa | 0 mm | - | 0 W/m² | - |
| 1788044709 | 8.89° C | 98% | 1011.1 hPa | 0 mm | - | 0 W/m² | - |
| 1788044405 | 9.44° C | 97% | 1011.1 hPa | 0 mm | - | 0 W/m² | - |
| 1788044099 | 9.44° C | 96% | 1011 hPa | 0 mm | - | 0 W/m² | - |
| 1788043796 | 10° C | 95% | 1011 hPa | 0 mm | - | 0 W/m² | - |
| 1788043495 | 10° C | 93% | 1010.9 hPa | 0 mm | - | 0 W/m² | - |
| 1788043189 | 10° C | 93% | 1010.8 hPa | 0 mm | - | 0 W/m² | - |
| 1788042885 | 10° C | 93% | 1010.9 hPa | 0 mm | - | 0 W/m² | - |
| 1788042584 | 10° C | 91% | 1010.8 hPa | 0 mm | - | 0 W/m² | - |
| 1788042283 | 10.56° C | 90% | 1010.8 hPa | 0 mm | - | 1 W/m² | - |
| 1788041979 | 10.56° C | 89% | 1010.7 hPa | 0 mm | - | 3 W/m² | - |
| 1788041675 | 10.56° C | 90% | 1010.6 hPa | 0 mm | - | 6 W/m² | - |
| 1788041370 | 10.56° C | 91% | 1010.4 hPa | 0 mm | - | 10 W/m² | - |
| 1788041064 | 11.11° C | 89% | 1010.4 hPa | 0 mm | - | 15 W/m² | - |
| 1788040762 | 11.11° C | 88% | 1010.3 hPa | 0 mm | - | 19 W/m² | - |
| 1788040456 | 11.11° C | 87% | 1010.3 hPa | 0 mm | - | 25 W/m² | - |
| 1788040153 | 11.11° C | 86% | 1010.3 hPa | 0 mm | - | 30 W/m² | - |
| 1788039846 | 11.11° C | 84% | 1010.3 hPa | 0 mm | - | 32 W/m² | - |
| 1788039541 | 11.67° C | 85% | 1010.1 hPa | 0 mm | - | 29 W/m² | - |
| 1788039237 | 11.11° C | 86% | 1010.1 hPa | 0 mm | - | 46 W/m² | - |
| 1788038931 | 11.67° C | 86% | 1010.1 hPa | 0 mm | - | 42 W/m² | - |
| 1788038627 | 11.67° C | 85% | 1010.2 hPa | 0 mm | - | 61 W/m² | - |
| 1788038326 | 11.67° C | 83% | 1010.1 hPa | 0 mm | - | 49 W/m² | - |
* Rain latest hour (hover to see other rain measurements)
** Current wind speed in m/s (hover to see current wind gust speed)